[[{"header":{"parameterUnit":"m.s-1","parameterCategory":1,"la1":30.2991,"la2":30.254,"lo1":-89.0895,"lo2":-89.0444,"dy":0.0017,"dx":0.0017,"nx":28,"ny":28,"refTime":"2025-08-15T09:00:00:Z","depth":0,"parameterNumber":2,"parameterNumberName":"U-component_of_WINDS"},"data":[0,0,0,0,0,0,0,0,0,0,0,0,0,0,0,0,0,0,0,0,0,0,0,0,0,0,0,0,0,0,0,0,0,0,0,0,0,0,0,0,0,0,0,0,0,0,0,0,0,0,0,0,0,0,0,0,0,0,1.954,1.9543,0,1.9818,1.9821,1.9824,1.9918,1.9917,1.9916,1.9915,2.02,2.0208,2.0216,0,0,0,0,0,0,0,0,0,0,0,0,0,1.9091,1.9098,1.954,1.9543,1.9547,1.9817,1.9821,1.9825,1.9919,1.9917,1.9916,1.9915,2.0197,2.0207,2.0217,0,0,0,0,0,0,0,0,0,0,0,0,0,1.9319,1.9101,1.9539,1.9626,1.9637,1.9816,1.9821,1.9826,1.9919,1.9917,1.9916,1.9914,2.0193,2.0206,2.0219,2.0332,0,0,2.0258,2.0264,0,0,0,0,0,0,0,0,1.9306,1.9335,1.961,1.962,1.9633,1.9832,1.9767,1.9996,1.9919,1.9812,1.9915,1.9913,2.0079,2.0101,2.0157,2.0345,2.0358,2.0259,2.0267,2.0273,2.0276,0,0,0,0,0,0,0,1.929,1.9324,1.965,1.9614,1.9628,1.9651,1.9682,1.9811,1.9951,1.9821,1.9829,1.986,2.0084,2.0144,2.0164,2.0362,2.0259,2.027,2.0278,2.0283,2.0659,2.0661,0,0,0,0,0,0,1.9259,1.931,1.9641,1.9658,1.9462,1.9661,1.9695,1.9769,1.995,1.9976,1.9861,1.9863,2.0123,2.0149,2.0174,2.032,2.0273,2.0285,2.0292,2.0657,2.0659,2.0662,0,0,0,0,0,0,1.9249,1.9288,1.963,1.9486,1.9531,1.967,1.9753,1.9776,1.9835,1.9981,2.0006,1.9896,2.0122,2.0156,2.0292,2.0331,2.0291,2.0302,2.0654,2.0657,2.0661,2.061,0,0,0,0,0,0,1.9236,1.9284,1.9328,1.9486,1.9539,1.9743,1.9756,1.9782,1.9858,1.9863,2.002,2.0044,2.0124,2.0273,2.0305,2.0348,2.0312,2.0651,2.0656,2.0659,2.0609,2.0611,2.0613,0,0,0,0,0,1.922,1.9302,1.933,1.9369,1.9597,1.9745,1.9775,1.9864,1.986,1.9906,1.9999,2.0039,2.0321,2.0286,2.0323,2.037,2.0649,2.0654,2.0659,2.0608,2.0611,2.0613,0,0,0,0,0,0,1.9144,1.9325,1.9357,1.9494,1.9603,1.976,1.9821,1.9864,1.9977,1.9977,2.0084,2.0118,2.0246,2.0322,2.028,2.049,2.0487,2.05,2.0435,2.0439,2.0441,2.042,2.0323,0,0,0,0,0,1.9143,1.9248,1.9401,1.9506,1.956,1.968,1.9748,1.9808,1.9925,1.9972,2.0076,2.0188,2.0303,2.0375,2.0488,2.0621,2.0656,2.0672,2.0673,2.0675,2.0684,2.076,2.0769,2.0678,2.0678,2.0678,0,0,1.9143,1.9255,1.9314,1.9494,1.9586,1.9692,1.9719,1.983,1.991,1.9989,2.0124,2.0204,2.0337,2.0472,2.0536,2.0539,2.0717,2.0681,2.0681,2.069,2.0766,2.0775,2.0782,2.0682,2.0681,2.068,0,0,1.9196,1.9291,1.939,1.9482,1.9621,1.9701,1.9725,1.9876,1.9932,2.007,2.0131,2.0228,2.0423,2.0515,2.0587,2.0677,2.0718,2.0711,2.0722,2.0795,2.0802,2.0809,2.0841,2.0851,2.072,2.072,2.072,0,1.9178,1.934,1.9435,1.9544,1.9621,1.9698,1.9799,1.9884,2.0052,2.0104,2.0105,2.0351,2.0446,2.0604,2.0625,2.0682,2.0712,2.0693,2.0793,2.0801,2.0809,2.084,2.0852,2.0718,2.0718,2.0719,2.0719,0,1.9311,1.9423,1.9486,1.9647,1.9732,1.9836,1.9947,2.0021,2.0074,2.0154,2.0293,2.041,2.0548,2.059,2.0643,2.0756,2.0753,2.0772,2.0772,2.0814,2.0845,2.0858,2.0716,2.0716,2.0717,2.0717,0,0,1.9323,1.9537,1.9558,1.9633,1.9792,1.9881,1.9989,2.0124,2.0186,2.03,2.0393,2.0557,2.0576,2.0658,2.0721,2.0785,2.0849,2.0797,2.0802,2.0802,2.0981,2.0965,2.0978,2.0878,2.0881,2.0883,2.097,0,1.9397,1.9593,1.9682,1.9838,1.9943,2.0018,2.0113,2.0221,2.0299,2.0399,2.0486,2.06,2.0616,2.0666,2.0733,2.0827,2.0886,2.0822,2.0965,2.0969,2.0929,2.0994,2.0978,2.1055,2.0983,2.0985,2.0987,0,1.9508,1.9623,1.9789,1.9938,1.9985,2.0068,2.02,2.0295,2.042,2.0472,2.0564,2.0626,2.0742,2.0734,2.0897,2.0851,2.0915,2.097,2.0976,2.0992,2.098,2.1012,2.1081,2.1092,2.1007,2.1005,2.1004,0,1.95,1.9696,1.9821,1.9883,2.0059,2.0115,2.0191,2.0315,2.0391,2.0506,2.0557,2.0684,2.0754,2.0851,2.0945,2.0931,2.1099,2.1099,2.1146,2.1143,2.1177,2.1173,2.1257,2.1219,2.1219,2.1219,2.1218,0,1.9572,1.9671,1.982,1.9896,2.001,2.0112,2.0221,2.0303,2.0412,2.0506,2.058,2.0667,2.0786,2.0889,2.0964,2.1087,2.1118,2.1163,2.1182,2.1157,2.1151,2.1199,2.1196,2.1222,2.1221,2.122,2.122,0,1.9581,1.9685,1.9826,1.9982,2.0023,2.01,2.0233,2.0311,2.0393,2.0512,2.0545,2.0674,2.0799,2.0903,2.1066,2.1116,2.1244,2.1266,2.1202,2.1212,2.1252,2.1247,2.137,2.1391,2.1339,2.1339,2.1339,0,1.962,1.9698,1.9862,1.993,2.0006,2.0115,2.0193,2.0297,2.0376,2.0525,2.0584,2.0714,2.0823,2.1018,2.1127,2.1252,2.1278,2.1312,2.1297,2.1269,2.1278,2.1272,2.128,2.1313,2.1313,2.1313,2.1313,0,1.9677,1.9725,1.9835,1.9964,2.0055,2.0162,2.027,2.0322,2.0446,2.053,2.0658,2.0743,2.091,2.1038,2.1176,2.1255,2.1305,2.1317,2.1335,2.1309,2.1268,2.129,2.1204,2.1314,2.1313,2.1313,2.1313,2.1313,1.9703,1.9776,1.9903,2.0023,2.0116,2.0215,2.0296,2.0389,2.0497,2.0642,2.0697,2.0828,2.0952,2.1142,2.1221,2.1326,2.1332,2.1357,2.1364,2.1368,2.1364,2.1252,2.1351,2.1351,2.1351,2.1352,2.1352,0,1.9764,1.985,1.996,2.0109,2.0204,2.0243,2.0365,2.0442,2.0556,2.0668,2.0774,2.0922,2.1047,2.1166,2.1296,2.1357,2.1383,2.1388,2.1384,2.1402,2.1351,2.1323,2.1365,2.1365,2.1365,2.1365,2.1365,2.1365,1.9806,1.9932,1.9995,2.0168,2.0254,2.0382,2.0449,2.0541,2.0631,2.0792,2.0897,2.0974,2.1089,2.1229,2.1345,2.1377,2.1422,2.142,2.1457,2.1408,2.1405,2.1402,2.1376,2.1429,2.1429,2.15,2.15,2.1501]},{"header":{"parameterUnit":"m.s-1","parameterCategory":1,"la1":30.2991,"la2":30.254,"lo1":-89.0895,"lo2":-89.0444,"dy":0.0017,"dx":0.0017,"nx":28,"ny":28,"refTime":"2025-08-15T09:00:00:Z","depth":0,"parameterNumber":3,"parameterNumberName":"V-component_of_WINDS"},"data":[0,0,0,0,0,0,0,0,0,0,0,0,0,0,0,0,0,0,0,0,0,0,0,0,0,0,0,0,0,0,0,0,0,0,0,0,0,0,0,0,0,0,0,0,0,0,0,0,0,0,0,0,0,0,0,0,0,0,2.3509,2.3508,0,2.3419,2.3418,2.3417,2.3321,2.332,2.3318,2.3317,2.3224,2.3222,2.3221,0,0,0,0,0,0,0,0,0,0,0,0,0,2.3596,2.3595,2.3509,2.3508,2.3507,2.3419,2.3418,2.3416,2.3321,2.332,2.3318,2.3317,2.3224,2.3223,2.3221,0,0,0,0,0,0,0,0,0,0,0,0,0,2.3537,2.3595,2.3509,2.3449,2.3442,2.3419,2.3418,2.3416,2.3322,2.332,2.3318,2.3316,2.3225,2.3223,2.3221,2.325,0,0,2.3215,2.3214,0,0,0,0,0,0,0,0,2.3541,2.3534,2.3459,2.3453,2.3446,2.3379,2.3414,2.336,2.3322,2.3368,2.3317,2.3315,2.3277,2.3271,2.3258,2.3245,2.3241,2.3215,2.3214,2.3213,2.3213,0,0,0,0,0,0,0,2.3545,2.3538,2.3473,2.3458,2.345,2.3425,2.3415,2.3403,2.3335,2.3363,2.3356,2.3347,2.3273,2.326,2.3255,2.324,2.3215,2.3213,2.3212,2.3212,2.3243,2.3245,0,0,0,0,0,0,2.3559,2.3542,2.3476,2.347,2.3489,2.3425,2.3413,2.3403,2.3334,2.3322,2.3349,2.3343,2.3264,2.3257,2.3252,2.3279,2.3213,2.3211,2.321,2.3241,2.3243,2.3245,0,0,0,0,0,0,2.3561,2.3554,2.348,2.3504,2.3493,2.3426,2.3414,2.3402,2.3389,2.3323,2.331,2.3348,2.3262,2.3254,2.325,2.3274,2.3211,2.3209,2.3239,2.3242,2.3244,2.3335,0,0,0,0,0,0,2.3564,2.3555,2.3566,2.3505,2.3492,2.3481,2.3416,2.3402,2.3386,2.3377,2.332,2.3308,2.326,2.3254,2.3248,2.327,2.3207,2.3236,2.324,2.3243,2.3329,2.334,2.335,0,0,0,0,0,2.3567,2.3595,2.3567,2.356,2.3504,2.3483,2.3475,2.342,2.3389,2.3398,2.3356,2.331,2.3273,2.3254,2.3247,2.3269,2.3234,2.3239,2.3243,2.3325,2.3338,2.335,0,0,0,0,0,0,2.3661,2.3586,2.3554,2.3564,2.353,2.3467,2.3478,2.3436,2.3411,2.3404,2.3336,2.3323,2.3327,2.3298,2.3278,2.3292,2.3247,2.325,2.3311,2.3323,2.3334,2.334,2.3206,0,0,0,0,0,2.3683,2.3672,2.3607,2.3622,2.3607,2.3545,2.3534,2.3494,2.3456,2.3442,2.3399,2.3364,2.3343,2.3332,2.331,2.3325,2.3309,2.3336,2.3347,2.3355,2.3359,2.3362,2.3372,2.326,2.326,2.326,0,0,2.3728,2.3686,2.3683,2.364,2.3609,2.3598,2.3534,2.3526,2.3517,2.344,2.3433,2.3401,2.3357,2.3362,2.3362,2.3337,2.3386,2.3361,2.3368,2.3367,2.3367,2.3378,2.3388,2.3263,2.3262,2.3262,0,0,2.3804,2.3772,2.378,2.375,2.3704,2.3663,2.3665,2.3607,2.3582,2.3575,2.3516,2.3504,2.3471,2.3442,2.3422,2.3485,2.3441,2.348,2.3534,2.3538,2.3546,2.3554,2.3575,2.3583,2.3484,2.3484,2.3484,0,2.3866,2.3848,2.3789,2.3784,2.3765,2.3695,2.3701,2.3675,2.3625,2.3614,2.3587,2.3543,2.3509,2.3505,2.352,2.3507,2.3506,2.3486,2.355,2.3557,2.3563,2.3582,2.359,2.3489,2.3488,2.3488,2.3487,0,2.3925,2.3914,2.3925,2.3878,2.3861,2.3862,2.3801,2.3791,2.3752,2.3713,2.3705,2.3661,2.3628,2.3624,2.3586,2.3614,2.36,2.3563,2.3516,2.358,2.3596,2.3603,2.3496,2.3494,2.3493,2.3492,0,0,2.4059,2.3978,2.3983,2.3959,2.3903,2.3892,2.3889,2.3857,2.3848,2.3816,2.381,2.3783,2.3748,2.3726,2.3684,2.3688,2.3738,2.3649,2.3647,2.3666,2.3763,2.3791,2.38,2.3709,2.371,2.3711,2.3766,0,2.4124,2.4115,2.406,2.4066,2.4054,2.3986,2.3983,2.3947,2.391,2.3893,2.3852,2.3833,2.3789,2.3775,2.3776,2.3732,2.3756,2.3727,2.3701,2.3701,2.3714,2.3809,2.3839,2.3894,2.3773,2.3774,2.3774,0,2.42,2.4171,2.4176,2.4118,2.411,2.4109,2.4073,2.4059,2.4016,2.3988,2.3964,2.3916,2.3907,2.3863,2.3849,2.383,2.3816,2.3793,2.3794,2.3788,2.3741,2.3806,2.391,2.3918,2.3784,2.3784,2.3783,0,2.4295,2.4258,2.4255,2.4237,2.417,2.417,2.4142,2.4097,2.408,2.4049,2.4037,2.4006,2.3988,2.3964,2.3909,2.3883,2.39,2.3852,2.3876,2.3877,2.3882,2.3882,2.3985,2.3875,2.3875,2.3875,2.3875,0,2.4373,2.4379,2.4296,2.4295,2.4298,2.4235,2.4239,2.4204,2.4165,2.4154,2.4093,2.4084,2.4012,2.3994,2.3951,2.3944,2.3937,2.3914,2.3902,2.3919,2.3922,2.3908,2.3902,2.3877,2.3876,2.3876,2.3876,0,2.448,2.4426,2.4418,2.4355,2.4338,2.4344,2.4288,2.4283,2.4242,2.4229,2.4222,2.4157,2.4133,2.4075,2.4036,2.4006,2.4011,2.399,2.4025,2.4018,2.4044,2.4042,2.414,2.4149,2.4036,2.4037,2.4038,0,2.4534,2.4536,2.4472,2.4461,2.4435,2.4417,2.44,2.4337,2.4321,2.4271,2.4272,2.4243,2.4216,2.418,2.4129,2.4098,2.4075,2.4111,2.407,2.4086,2.4073,2.4074,2.4073,2.4121,2.4122,2.4123,2.4124,0,2.4633,2.4606,2.4583,2.4551,2.4531,2.4503,2.4471,2.4465,2.4393,2.4378,2.4353,2.4332,2.4291,2.4262,2.4223,2.4192,2.4146,2.4138,2.4141,2.4158,2.4178,2.4166,2.4049,2.4136,2.4135,2.4134,2.4133,2.4133,2.4714,2.4712,2.4666,2.4643,2.4612,2.4583,2.4574,2.4532,2.451,2.4471,2.4435,2.4413,2.4367,2.431,2.4282,2.4262,2.4239,2.4245,2.4246,2.4248,2.4255,2.4182,2.4255,2.4255,2.4254,2.4254,2.4254,0,2.4809,2.4776,2.4755,2.4712,2.4693,2.4651,2.4613,2.4599,2.4581,2.4543,2.4517,2.4487,2.4458,2.4404,2.437,2.4364,2.4342,2.4358,2.4357,2.435,2.4278,2.4278,2.4376,2.4376,2.4376,2.4376,2.4376,2.4376,2.4857,2.4851,2.4818,2.4795,2.4761,2.4739,2.4721,2.4693,2.4662,2.4631,2.4607,2.4571,2.4526,2.4488,2.4459,2.4444,2.4433,2.4455,2.4433,2.4367,2.4355,2.4344,2.4344,2.4454,2.4454,2.4506,2.4507,2.4507]}]]